EW1275 Weather Reports


Display with metric or nautical units.
time (UTC)temp
F
wind
direction
speed
MPH
gust
MPH
rain 1hr
in
rain 24hr
in
rain mn
in
humidity
%
barometer
mb
20200217185820 61 336 2.0 4.0 0.00 0.00 0.00 80 1014.3
20200217185328 61 333 2.0 4.0 0.00 0.00 0.00 81 1014.2
20200217184819 60 327 2.0 4.0 0.00 0.00 0.00 81 1014.2
20200217184326 60 326 2.0 5.0 0.00 0.00 0.00 81 1014.3
20200217183834 60 334 2.0 5.0 0.00 0.00 0.00 81 1014.4
20200217183317 60 336 3.0 5.0 0.00 0.00 0.00 81 1014.3
20200217182827 59 326 3.0 4.0 0.00 0.00 0.00 82 1014.4
20200217182338 59 324 3.0 4.0 0.00 0.00 0.00 81 1014.4
20200217181825 60 328 2.0 4.0 0.00 0.00 0.00 81 1014.4
20200217181332 60 319 2.0 4.0 0.00 0.00 0.00 81 1014.4
20200217180819 59 311 2.0 4.0 0.00 0.00 0.00 81 1014.4
20200217180328 59 331 2.0 4.0 0.00 0.00 0.00 82 1014.4
20200217175838 59 321 2.0 5.0 0.00 0.00 0.00 83 1014.5
20200217175325 59 330 3.0 6.0 0.00 0.00 0.00 82 1014.5
20200217173830 58 135 2.0 7.0 0.00 0.00 0.00 81 1014.5
20200217173337 57 137 1.0 7.0 0.00 0.00 0.00 82 1014.4
20200217172823 57 153 2.0 5.0 0.00 0.00 0.00 84 1014.5
20200217172331 56 158 1.0 6.0 0.00 0.00 0.00 85 1014.5
20200217171838 56 144 3.0 6.0 0.00 0.00 0.00 85 1014.5
20200217171325 56 128 1.0 6.0 0.00 0.00 0.00 86 1014.7
20200217170832 56 77 2.0 6.0 0.00 0.00 0.00 86 1014.8
20200217170323 56 113 2.0 4.0 0.00 0.00 0.00 86 1014.9
20200217165829 56 80 1.0 3.0 0.00 0.00 0.00 88 1015.0
20200217165336 55 76 0.0 5.0 0.00 0.00 0.00 88 1015.0
20200217164823 55 77 2.0 7.0 0.00 0.00 0.00 89 1015.0
20200217164330 55 133 4.0 7.0 0.00 0.00 0.00 89 1015.0
20200217163837 55 119 4.0 8.0 0.00 0.00 0.00 90 1014.9
20200217163323 54 159 6.0 9.0 0.00 0.00 0.00 90 1014.9
20200217162831 54 134 7.0 9.0 0.00 0.00 0.00 91 1014.9
20200217162338 54 146 7.0 9.0 0.00 0.00 0.00 91 1014.8
20200217161828 53 163 7.0 9.0 0.00 0.00 0.00 92 1014.9
20200217161335 53 132 6.0 8.0 0.00 0.00 0.00 92 1015.0
20200217160822 53 147 5.0 7.0 0.00 0.00 0.00 92 1015.0
20200217160329 53 131 5.0 6.0 0.00 0.00 0.00 92 1015.0
20200217155836 52 134 4.0 6.0 0.00 0.00 0.00 92 1015.1
20200217155322 52 135 5.0 6.0 0.00 0.00 0.00 92 1015.0
20200217154830 52 116 4.0 6.0 0.00 0.00 0.00 92 1015.0
20200217154341 52 142 5.0 7.0 0.00 0.00 0.00 92 1015.1
20200217153824 52 153 5.0 7.0 0.00 0.00 0.00 92 1015.0
20200217153331 52 154 5.0 8.0 0.00 0.00 0.00 93 1015.1
20200217152822 52 157 6.0 8.0 0.00 0.00 0.00 93 1015.1
20200217152329 52 143 5.0 8.0 0.00 0.00 0.00 93 1015.1
20200217151835 52 147 4.0 7.0 0.00 0.00 0.00 93 1015.0
20200217151322 52 163 4.0 7.0 0.00 0.00 0.00 93 1015.1
20200217150829 52 164 4.0 6.0 0.00 0.00 0.00 93 1015.1
20200217150336 52 158 4.0 6.0 0.00 0.00 0.00 93 1015.2
20200217145823 52 153 5.0 6.0 0.00 0.00 0.00 93 1015.1
20200217145329 52 148 4.0 6.0 0.00 0.00 0.00 93 1015.1
20200217144817 51 150 4.0 6.0 0.00 0.00 0.00 93 1015.1
20200217144330 51 163 3.0 6.0 0.00 0.00 0.00 93 1015.2
20200217143818 51 157 4.0 6.0 0.00 0.00 0.00 93 1015.1
20200217143328 51 149 4.0 5.0 0.00 0.00 0.00 93 1015.0
20200217142835 51 150 4.0 5.0 0.00 0.00 0.00 93 1015.0
20200217142325 51 155 4.0 5.0 0.00 0.00 0.00 93 1014.8
20200217141831 51 161 3.0 7.0 0.00 0.00 0.00 93 1014.8
20200217141318 51 165 5.0 7.0 0.00 0.00 0.00 93 1014.7
20200217140824 51 153 5.0 7.0 0.00 0.00 0.00 93 1014.7
20200217140334 50 157 4.0 7.0 0.00 0.00 0.00 93 1014.7
20200217135825 50 149 6.0 7.0 0.00 0.00 0.00 93 1014.6
20200217135332 50 163 4.0 6.0 0.00 0.00 0.00 93 1014.6
20200217134819 50 161 4.0 5.0 0.00 0.00 0.00 93 1014.6
20200217134326 50 155 4.0 5.0 0.00 0.00 0.00 93 1014.6
20200217133815 50 158 3.0 6.0 0.00 0.00 0.00 93 1014.5
20200217133325 50 162 3.0 6.0 0.00 0.00 0.00 93 1014.5
20200217132831 50 157 3.0 5.0 0.00 0.00 0.00 93 1014.5
20200217132321 50 159 3.0 6.0 0.00 0.00 0.00 93 1014.6
20200217131831 49 160 4.0 6.0 0.00 0.00 0.00 93 1014.5
20200217131322 49 170 4.0 6.0 0.00 0.00 0.00 93 1014.4
20200217130829 49 168 3.0 5.0 0.00 0.00 0.00 93 1014.4
20200217130335 49 164 4.0 6.0 0.00 0.00 0.00 93 1014.4
20200217125825 49 166 3.0 7.0 0.00 0.00 0.00 93 1014.4
20200217125333 49 158 5.0 7.0 0.00 0.00 0.00 93 1014.3
20200217124820 50 158 5.0 7.0 0.00 0.00 0.00 93 1014.4
20200217124326 50 168 3.0 5.0 0.00 0.00 0.00 93 1014.3
20200217123833 50 165 3.0 4.0 0.00 0.00 0.00 93 1014.3
20200217123320 50 149 2.0 4.0 0.00 0.00 0.00 93 1014.3
20200217122829 50 149 3.0 4.0 0.00 0.00 0.00 93 1014.2
20200217122338 50 148 2.0 3.0 0.00 0.00 0.00 93 1014.3
20200217121826 49 140 2.0 3.0 0.00 0.00 0.00 92 1014.2
20200217121333 50 134 2.0 3.0 0.00 0.00 0.00 92 1014.2
20200217120820 50 134 1.0 4.0 0.00 0.00 0.00 93 1014.1
20200217120328 50 130 3.0 4.0 0.00 0.00 0.00 93 1014.1
20200217115813 50 130 2.0 3.0 0.00 0.00 0.00 92 1014.2
20200217115326 50 130 2.0 3.0 0.00 0.00 0.00 92 1014.1
20200217114834 50 130 2.0 3.0 0.00 0.00 0.00 92 1014.1
20200217114322 50 130 2.0 3.0 0.00 0.00 0.00 92 1014.1
20200217113816 50 130 2.0 4.0 0.00 0.00 0.00 92 1014.0
20200217113326 51 130 3.0 5.0 0.00 0.00 0.00 92 1014.0
20200217112833 51 130 2.0 6.0 0.00 0.00 0.00 92 1014.0
20200217112322 51 138 3.0 6.0 0.00 0.00 0.00 92 1014.1
20200217111830 51 118 4.0 8.0 0.00 0.00 0.00 92 1014.1
20200217111337 52 119 5.0 8.0 0.00 0.00 0.00 92 1014.1
20200217110823 52 151 5.0 8.0 0.00 0.00 0.00 92 1014.2
20200217110330 52 136 5.0 9.0 0.00 0.00 0.00 92 1014.2
20200217105837 52 142 7.0 9.0 0.00 0.00 0.00 91 1014.2
20200217105328 53 144 5.0 7.0 0.00 0.00 0.00 91 1014.2
20200217104834 53 157 5.0 8.0 0.00 0.00 0.00 91 1014.2
20200217104322 53 147 6.0 9.0 0.00 0.00 0.00 91 1014.2
20200217103828 53 141 6.0 9.0 0.00 0.00 0.00 91 1014.3
20200217103335 53 150 7.0 10.0 0.00 0.00 0.00 91 1014.3
20200217102822 54 145 8.0 10.0 0.00 0.00 0.00 91 1014.4
20200217102329 54 145 5.0 8.0 0.00 0.00 0.00 91 1014.5
20200217101836 54 146 4.0 8.0 0.00 0.00 0.00 91 1014.6
20200217101322 54 132 6.0 9.0 0.00 0.00 0.00 91 1014.6
20200217100829 54 144 7.0 9.0 0.00 0.00 0.00 91 1014.6
20200217100320 55 146 7.0 9.0 0.00 0.00 0.00 91 1014.7
20200217095828 55 149 6.0 9.0 0.00 0.00 0.00 91 1014.8
20200217095334 55 148 6.0 9.0 0.00 0.00 0.00 91 1014.9
20200217094820 55 165 6.0 9.0 0.00 0.00 0.00 91 1015.1
20200217094328 55 155 7.0 9.0 0.00 0.00 0.00 91 1015.2
20200217093836 55 160 5.0 8.0 0.00 0.00 0.00 91 1015.3
20200217093322 55 150 5.0 8.0 0.00 0.00 0.00 90 1015.4
20200217092829 55 157 6.0 8.0 0.00 0.00 0.00 90 1015.5
20200217092336 55 163 5.0 8.0 0.00 0.00 0.00 90 1015.5
20200217091827 55 130 6.0 8.0 0.00 0.00 0.00 90 1015.5
20200217091334 55 136 4.0 7.0 0.00 0.00 0.00 90 1015.6
20200217090823 55 132 5.0 9.0 0.00 0.00 0.00 90 1015.6
20200217090333 55 140 5.0 9.0 0.00 0.00 0.00 90 1015.6
20200217085820 55 132 6.0 8.0 0.00 0.00 0.00 90 1015.6
20200217085327 55 139 5.0 8.0 0.00 0.00 0.00 90 1015.6
20200217084816 55 148 5.0 9.0 0.00 0.00 0.00 90 1015.8
20200217084326 55 146 7.0 9.0 0.00 0.00 0.00 90 1015.8
20200217083833 55 148 6.0 9.0 0.00 0.00 0.00 90 1015.8
20200217083323 55 145 6.0 9.0 0.00 0.00 0.00 90 1015.8
20200217082830 55 142 6.0 8.0 0.00 0.00 0.00 89 1015.9
20200217082337 55 146 5.0 8.0 0.00 0.00 0.00 89 1015.9
20200217081824 56 146 5.0 8.0 0.00 0.00 0.00 89 1016.0
20200217081331 56 146 4.0 8.0 0.00 0.00 0.00 90 1016.1
20200217080818 56 150 4.0 6.0 0.00 0.00 0.00 89 1016.0
20200217080327 56 148 3.0 6.0 0.00 0.00 0.00 89 1016.1
20200217075836 56 157 4.0 5.0 0.00 0.00 0.00 89 1016.1
20200217075322 56 159 3.0 5.0 0.00 0.00 0.00 89 1016.1
20200217074828 56 159 2.0 4.0 0.00 0.00 0.00 89 1016.1
20200217074322 56 159 3.0 4.0 0.00 0.00 0.00 89 1016.1
20200217073829 56 159 3.0 4.0 0.00 0.00 0.00 89 1016.1
20200217073336 56 160 2.0 2.0 0.00 0.00 0.00 89 1016.1
20200217072822 56 160 2.0 4.0 0.00 0.00 0.00 89 1016.0
20200217072331 56 160 2.0 5.0 0.00 0.00 0.00 89 1016.0
20200217071836 56 161 3.0 5.0 0.00 0.00 0.00 89 1015.9
20200217071323 56 163 3.0 6.0 0.00 0.00 0.00 89 1015.9
20200217070830 56 156 3.0 6.0 0.00 0.00 0.00 89 1015.9
20200217070337 57 152 3.0 5.0 0.00 0.00 0.00 89 1015.9
20200217065828 56 148 4.0 5.0 0.00 0.00 0.00 89 1015.9
20200217065336 57 161 3.0 5.0 0.00 0.00 0.00 89 1015.9
20200217064822 57 151 3.0 5.0 0.00 0.00 0.00 89 1015.9
20200217064329 57 148 4.0 5.0 0.00 0.00 0.00 89 1015.9
20200217063836 57 152 3.0 5.0 0.00 0.00 0.00 89 1015.8
20200217063323 57 151 3.0 5.0 0.00 0.00 0.00 89 1015.9
20200217062830 57 161 2.0 3.0 0.00 0.00 0.00 89 1016.0
20200217062337 57 161 2.0 3.0 0.00 0.00 0.00 89 1016.0
20200217061823 57 161 1.0 3.0 0.00 0.00 0.00 89 1016.1
20200217061330 57 161 1.0 2.0 0.00 0.00 0.00 89 1016.1
20200217060824 57 161 0.0 2.0 0.00 0.00 0.00 90 1016.1
20200217060334 57 161 0.0 2.0 0.00 0.00 0.00 90 1016.1
20200217055821 57 161 0.0 2.0 0.00 0.00 0.00 90 1016.2
20200217055328 57 161 1.0 3.0 0.00 0.00 0.00 90 1016.2
20200217054835 57 161 2.0 3.0 0.00 0.00 0.00 90 1016.2
20200217054321 57 161 1.0 3.0 0.00 0.00 0.00 90 1016.3
20200217053828 57 161 2.0 3.0 0.00 0.00 0.00 90 1016.3
20200217053319 57 157 2.0 4.0 0.00 0.00 0.00 90 1016.3
20200217052827 57 140 2.0 4.0 0.00 0.00 0.00 90 1016.3
20200217052316 57 28 2.0 3.0 0.00 0.00 0.00 90 1016.3
20200217051826 57 28 2.0 3.0 0.00 0.00 0.00 90 1016.4
20200217051333 57 28 2.0 3.0 0.00 0.00 0.00 90 1016.4
20200217050822 57 28 2.0 3.0 0.00 0.00 0.00 90 1016.4
20200217050330 57 28 1.0 2.0 0.00 0.00 0.00 90 1016.4
20200217045821 57 17 0.0 0.0 0.00 0.00 0.00 90 1016.4
20200217045327 57 315 0.0 0.0 0.00 0.00 0.00 90 1016.4
20200217044837 57 315 0.0 0.0 0.00 0.00 0.00 90 1016.4
20200217044323 57 315 0.0 0.0 0.00 0.00 0.00 90 1016.5
20200217043834 58 315 0.0 0.0 0.00 0.00 0.00 90 1016.4
20200217043321 58 315 0.0 0.0 0.00 0.00 0.00 90 1016.4
20200217042828 58 315 0.0 0.0 0.00 0.00 0.00 90 1016.4
20200217042335 58 315 0.0 0.0 0.00 0.00 0.00 90 1016.4
20200217041822 58 315 0.0 0.0 0.00 0.00 0.00 90 1016.4
20200217041332 58 315 0.0 0.0 0.00 0.00 0.00 90 1016.4
20200217040818 58 315 0.0 1.0 0.00 0.00 0.00 90 1016.4
20200217040328 58 315 0.0 2.0 0.00 0.00 0.00 90 1016.4
20200217035835 58 315 1.0 2.0 0.00 0.00 0.00 90 1016.5
20200217035326 58 315 0.0 2.0 0.00 0.00 0.00 90 1016.6
20200217034833 58 309 0.0 2.0 0.00 0.00 0.00 90 1016.5
20200217034320 58 309 1.0 2.0 0.00 0.00 0.00 89 1016.5
20200217033827 58 310 1.0 2.0 0.00 0.00 0.00 89 1016.5
20200217033334 58 309 1.0 2.0 0.00 0.00 0.00 89 1016.4
20200217032820 58 328 1.0 3.0 0.00 0.00 0.00 89 1016.4
20200217032327 58 328 1.0 3.0 0.00 0.00 0.00 89 1016.4
20200217031834 58 325 1.0 4.0 0.00 0.00 0.00 89 1016.3
20200217031321 58 334 2.0 4.0 0.00 0.00 0.00 89 1016.2
20200217030829 58 321 2.0 4.0 0.00 0.00 0.00 89 1016.2
20200217030319 58 321 1.0 3.0 0.00 0.00 0.00 89 1016.2
20200217025826 58 328 0.0 3.0 0.00 0.00 0.00 89 1016.2
20200217025333 58 333 1.0 3.0 0.00 0.00 0.00 89 1016.2
20200217024820 58 326 1.0 3.0 0.00 0.00 0.00 89 1016.2
20200217024329 58 324 2.0 3.0 0.00 0.00 0.00 88 1016.1
20200217023820 58 323 1.0 4.0 0.00 0.00 0.00 88 1016.1
20200217023325 58 324 2.0 4.0 0.00 0.00 0.00 88 1016.1
20200217022833 58 321 2.0 4.0 0.00 0.00 0.00 88 1016.1
20200217022322 58 338 2.0 4.0 0.00 0.00 0.00 88 1016.2
20200217021836 58 327 2.0 4.0 0.00 0.00 0.00 88 1016.2
20200217021323 58 332 2.0 3.0 0.00 0.00 0.00 87 1016.2
20200217020830 59 348 2.0 4.0 0.00 0.00 0.00 87 1016.2
20200217020317 59 350 2.0 4.0 0.00 0.00 0.00 87 1016.1
20200217015826 59 355 1.0 2.0 0.00 0.00 0.00 87 1016.1
20200217015333 59 355 1.0 2.0 0.00 0.00 0.00 87 1016.2
20200217014820 59 355 1.0 2.0 0.00 0.00 0.00 87 1016.2
20200217014327 59 355 1.0 2.0 0.00 0.00 0.00 87 1016.2
20200217013834 59 348 1.0 4.0 0.00 0.00 0.00 86 1016.2
20200217013327 59 348 2.0 4.0 0.00 0.00 0.00 86 1016.0
20200217012817 59 336 2.0 3.0 0.00 0.00 0.00 86 1016.1
20200217012326 59 327 1.0 2.0 0.00 0.00 0.00 86 1016.1
20200217011834 59 327 0.0 2.0 0.00 0.00 0.00 86 1016.2
20200217011317 59 327 0.0 2.0 0.00 0.00 0.00 86 1016.1
20200217010827 60 327 1.0 2.0 0.00 0.00 0.00 85 1016.0
20200217010334 60 327 0.0 2.0 0.00 0.00 0.00 85 1016.0
20200217005824 60 327 1.0 2.0 0.00 0.00 0.00 85 1016.0
20200217005331 60 327 0.0 1.0 0.00 0.00 0.00 85 1016.1
20200217004821 60 327 0.0 2.0 0.00 0.00 0.00 85 1016.0
20200217004330 60 329 1.0 3.0 0.00 0.00 0.00 85 1016.2
20200217003837 61 329 1.0 3.0 0.00 0.00 0.00 85 1016.2
20200217003323 61 335 2.0 4.0 0.00 0.00 0.00 85 1016.2
20200217002328 61 343 3.0 4.0 0.00 0.00 0.00 84 1016.3
20200217001835 61 317 2.0 4.0 0.00 0.00 0.00 84 1016.4
20200217001321 61 339 2.0 4.0 0.00 0.00 0.00 84 1016.4
20200217000828 61 9 2.0 4.0 0.00 0.00 0.00 83 1016.4
20200217000318 62 337 3.0 4.0 0.00 0.00 0.00 83 1016.4
20200216235825 62 5 2.0 4.0 0.00 0.00 0.00 83 1016.5
20200216235319 62 346 2.0 4.0 0.00 0.00 0.00 82 1016.5
20200216234828 62 340 2.0 4.0 0.00 0.00 0.00 82 1016.5
20200216234338 62 350 2.0 4.0 0.00 0.00 0.00 82 1016.4
20200216233825 62 335 2.0 4.0 0.00 0.00 0.00 82 1016.4
20200216233331 62 312 3.0 4.0 0.00 0.00 0.00 83 1016.5
20200216232818 62 349 2.0 4.0 0.00 0.00 0.00 83 1016.6
20200216232326 62 338 2.0 4.0 0.00 0.00 0.00 83 1016.6
20200216231833 62 334 2.0 4.0 0.00 0.00 0.00 83 1016.6
20200216231323 62 326 2.0 4.0 0.00 0.00 0.00 83 1016.7
20200216230830 62 350 3.0 4.0 0.00 0.00 0.00 83 1016.8
20200216230321 62 340 3.0 5.0 0.00 0.00 0.00 83 1016.9
20200216225829 62 345 3.0 6.0 0.00 0.00 0.00 83 1016.8
20200216225335 62 350 4.0 6.0 0.00 0.00 0.00 82 1016.8
20200216224822 62 355 4.0 6.0 0.00 0.00 0.00 82 1016.9
20200216224329 62 5 4.0 6.0 0.00 0.00 0.00 82 1016.9
20200216223836 63 360 4.0 6.0 0.00 0.00 0.00 82 1016.9
20200216223323 63 333 4.0 6.0 0.00 0.00 0.00 82 1016.9
20200216222829 63 306 4.0 5.0 0.00 0.00 0.00 82 1016.9
20200216222318 63 348 3.0 5.0 0.00 0.00 0.00 82 1017.0
20200216221829 63 360 3.0 5.0 0.00 0.00 0.00 82 1016.9
20200216221336 63 342 3.0 5.0 0.00 0.00 0.00 82 1016.9
20200216220823 63 355 3.0 5.0 0.00 0.00 0.00 82 1016.9
20200216220330 63 355 4.0 6.0 0.00 0.00 0.00 82 1017.1
20200216215837 63 346 4.0 7.0 0.00 0.00 0.00 82 1017.1
20200216215323 63 328 5.0 7.0 0.00 0.00 0.00 81 1017.1
20200216214830 63 349 4.0 6.0 0.00 0.00 0.00 81 1017.1
20200216214338 64 14 3.0 5.0 0.00 0.00 0.00 81 1017.1
20200216213824 64 340 3.0 5.0 0.00 0.00 0.00 81 1017.2
20200216213331 64 331 3.0 5.0 0.00 0.00 0.00 81 1017.1
20200216212823 63 344 4.0 7.0 0.00 0.00 0.00 82 1017.0
20200216212330 63 330 4.0 7.0 0.00 0.00 0.00 82 1017.1
20200216211837 63 333 4.0 5.0 0.00 0.00 0.00 81 1017.1
20200216211323 64 340 4.0 6.0 0.00 0.00 0.00 81 1017.2
20200216210830 64 5 3.0 6.0 0.00 0.00 0.00 81 1017.4
20200216210337 64 337 3.0 5.0 0.00 0.00 0.00 81 1017.4
20200216205824 64 346 3.0 4.0 0.00 0.00 0.00 80 1017.5
20200216205331 64 321 3.0 5.0 0.00 0.00 0.00 80 1017.5
20200216204838 64 59 3.0 5.0 0.00 0.00 0.00 80 1017.6
20200216204328 63 351 3.0 5.0 0.00 0.00 0.00 80 1017.7
20200216203835 63 347 3.0 6.0 0.00 0.00 0.00 81 1017.8
20200216203322 63 348 3.0 5.0 0.00 0.00 0.00 81 1017.8
20200216202829 63 342 3.0 5.0 0.00 0.00 0.00 80 1017.9
20200216202319 63 335 3.0 5.0 0.00 0.00 0.00 80 1018.0
20200216201826 63 340 2.0 5.0 0.00 0.00 0.00 80 1018.1
20200216201333 63 331 2.0 5.0 0.00 0.00 0.00 81 1018.2
20200216200822 63 328 3.0 5.0 0.00 0.00 0.00 81 1018.4
20200216200329 63 323 3.0 4.0 0.00 0.00 0.00 81 1018.5
20200216195820 63 333 2.0 5.0 0.00 0.00 0.00 81 1018.6
20200216195328 63 338 4.0 5.0 0.00 0.00 0.00 80 1018.7
20200216194816 63 326 2.0 4.0 0.00 0.00 0.00 80 1018.8
20200216194327 63 342 2.0 4.0 0.00 0.00 0.00 80 1018.9
20200216193833 63 355 2.0 6.0 0.00 0.00 0.00 81 1018.9
20200216193323 62 331 4.0 6.0 0.00 0.00 0.00 80 1018.9
20200216192830 62 339 3.0 6.0 0.00 0.00 0.00 80 1019.0
20200216192320 62 339 3.0 6.0 0.00 0.00 0.00 80 1019.1
20200216191827 62 345 4.0 7.0 0.00 0.00 0.00 80 1019.2
20200216191318 62 315 5.0 8.0 0.00 0.00 0.00 79 1019.2
20200216190824 62 334 5.0 8.0 0.00 0.00 0.00 79 1019.2
20200216190334 62 350 5.0 6.0 0.00 0.00 0.00 78 1019.2